Location: El Centro
(32.7920°N, 115.5620°W)
Time: 16:44:04
(UTC-08:00)

Hamsat - Visible Passes

Search period start: 30 January 2015 00:00
Search period end: 09 February 2015 00:00
Orbit: 590 x 626 km, 97.6° (Epoch: 29 January)

Date Brightness Start Highest point End Pass type
(mag) Time Alt. Az. Time Alt. Az. Time Alt. Az.
30 Jan ? 04:14:28 10° ENE 04:16:30 14° E 04:18:46 10° SE visible
30 Jan ? 05:48:48 10° N 05:52:37 35° WNW 05:56:25 10° SW visible
31 Jan ? 04:27:14 10° NE 04:30:18 20° E 04:33:28 10° SE visible
31 Jan ? 06:02:47 10° NNW 06:06:13 24° WNW 06:09:33 10° SW visible
01 Feb ? 04:40:23 10° NE 04:44:02 29° E 04:47:44 10° SSE visible
02 Feb ? 04:53:44 10° NNE 04:57:44 44° E 05:01:45 10° S visible
03 Feb ? 05:07:13 10° NNE 05:11:23 68° E 05:15:34 10° S visible
04 Feb ? 05:20:50 10° N 05:25:01 80° WNW 05:29:12 10° SSW visible
04 Feb ? 17:47:22 10° WSW 17:49:28 13° W 17:51:19 10° WNW visible
05 Feb ? 05:34:31 10° N 05:38:36 52° WNW 05:42:40 10° SSW visible
06 Feb ? 04:13:58 10° ENE 04:16:05 14° E 04:18:26 10° SE visible
06 Feb ? 05:48:21 10° N 05:52:11 35° WNW 05:55:59 10° SW visible
07 Feb ? 04:26:44 10° NE 04:29:49 21° E 04:33:04 10° SE visible
07 Feb ? 06:02:18 10° NNW 06:05:44 24° WNW 06:09:05 10° SW visible
08 Feb ? 04:39:51 10° NE 04:43:32 30° E 04:47:17 10° SSE visible
